WD6AWP Weather Reports


time (UTC)temp
F
wind
direction
speed
knots
gust
knots
rain 1hr
in
rain 24hr
in
rain mn
in
humidity
%
barometer
mb
20260902153044 70 288 0.0 0.0 0.00 0.00 0.00 82 1016.0
20260902151539 68 288 0.0 0.0 0.00 0.00 0.00 88 1016.0
20260902150035 67 289 0.0 0.0 0.00 0.00 0.00 89 1015.9
20260902144536 65 288 0.0 0.0 0.00 0.00 0.00 94 1015.9
20260902143030 63 289 0.0 0.0 0.00 0.00 0.00 97 1015.8
20260902141529 61 288 0.0 0.0 0.00 0.00 0.00 95 1015.6
20260902140028 60 288 0.0 0.0 0.00 0.00 0.00 94 1015.5
20260902134536 60 288 0.0 0.0 0.00 0.00 0.00 94 1015.4
20260902133028 60 288 0.0 0.0 0.00 0.00 0.00 94 1015.3
20260902131526 60 288 0.0 0.0 0.00 0.00 0.00 94 1015.2
20260902130025 61 288 0.0 0.0 0.00 0.00 0.00 94 1015.1
20260902124525 61 288 0.0 0.0 0.00 0.00 0.00 94 1015.1
20260902123025 61 289 0.0 0.0 0.00 0.00 0.00 94 1015.2
20260902121522 61 288 0.0 0.0 0.00 0.00 0.00 93 1015.1
20260902120022 61 288 0.0 0.0 0.00 0.00 0.00 94 1015.1
20260902114527 61 288 0.0 0.0 0.00 0.00 0.00 94 1015.3
20260902113032 61 288 0.0 0.0 0.00 0.00 0.00 93 1015.2
20260902111522 61 288 0.0 0.0 0.00 0.00 0.00 94 1015.3
20260902110018 61 288 0.0 0.0 0.00 0.00 0.00 93 1015.3
20260902104517 61 288 0.0 0.0 0.00 0.00 0.00 93 1015.3
20260902103026 61 288 0.0 0.0 0.00 0.00 0.00 92 1015.4
20260902101519 61 288 0.0 0.0 0.00 0.00 0.00 92 1015.5
20260902100017 61 288 0.0 0.0 0.00 0.00 0.00 92 1015.5
20260902094515 62 288 0.0 0.0 0.00 0.00 0.00 91 1015.5
20260902093012 62 288 0.0 0.0 0.00 0.00 0.00 91 1015.5
20260902091510 62 288 0.0 0.0 0.00 0.00 0.00 92 1015.6
20260902090009 63 289 0.0 0.0 0.00 0.00 0.00 91 1015.6
20260902084512 63 288 0.0 0.0 0.00 0.00 0.00 91 1015.6
20260902083008 63 288 0.0 0.0 0.00 0.00 0.00 91 1015.7
20260902081507 63 288 0.0 0.0 0.00 0.00 0.00 90 1015.8
20260902080005 63 288 0.0 0.0 0.00 0.00 0.00 90 1015.7
20260902074503 64 289 0.0 0.0 0.00 0.00 0.00 90 1015.6
20260902073002 64 288 0.0 0.0 0.00 0.00 0.00 89 1015.5
20260902071606 64 288 0.0 0.0 0.00 0.00 0.00 90 1015.4
20260902070057 64 288 0.0 0.0 0.00 0.00 0.00 89 1015.2
20260902064604 64 288 0.0 0.0 0.00 0.00 0.00 88 1015.2
20260902063054 64 288 0.0 0.0 0.00 0.00 0.00 87 1015.2
20260902061604 65 288 0.0 0.0 0.00 0.00 0.00 86 1015.2
20260902060054 65 289 0.0 0.0 0.00 0.00 0.00 85 1015.1
20260902054552 66 288 0.0 0.0 0.00 0.00 0.00 84 1015.0
20260902053049 67 288 0.0 0.0 0.00 0.00 0.00 84 1015.0
20260902051547 67 288 0.0 0.0 0.00 0.00 0.00 84 1015.0
20260902050057 68 289 0.0 0.0 0.00 0.00 0.00 83 1015.0
20260902044547 69 288 0.0 0.0 0.00 0.00 0.00 82 1014.9
20260902043047 69 288 0.0 0.0 0.00 0.00 0.00 82 1014.6
20260902041545 69 288 0.9 6.1 0.00 0.00 0.00 82 1014.4
20260902040045 69 284 2.6 7.0 0.00 0.00 0.00 82 1014.2
20260902034545 69 267 4.3 8.7 0.00 0.00 0.00 82 1013.9
20260902033046 69 284 5.2 10.4 0.00 0.00 0.00 82 1013.8
20260902031543 70 269 6.1 11.3 0.00 0.00 0.00 81 1013.6
20260902030043 70 282 7.0 13.0 0.00 0.00 0.00 81 1013.5
20260902024542 70 281 7.8 12.2 0.00 0.00 0.00 81 1013.4
20260902023045 70 271 5.2 10.4 0.00 0.00 0.00 81 1013.3
20260902021543 71 263 7.0 12.2 0.00 0.00 0.00 81 1013.4
20260902020040 71 253 8.7 15.6 0.00 0.00 0.00 81 1013.5
20260902014543 72 289 9.6 15.6 0.00 0.00 0.00 79 1013.4
20260902013037 72 273 7.8 13.9 0.00 0.00 0.00 80 1013.3
20260902011543 73 308 10.4 15.6 0.00 0.00 0.00 78 1013.4
20260902010034 74 241 10.4 17.4 0.00 0.00 0.00 76 1013.5
20260902004533 74 265 8.7 17.4 0.00 0.00 0.00 77 1013.6
20260902003031 75 242 7.8 15.6 0.00 0.00 0.00 77 1013.6
20260902001529 75 234 8.7 17.4 0.00 0.00 0.00 76 1013.7
20260902000028 76 271 7.0 15.6 0.00 0.00 0.00 75 1013.8
20260901234527 76 273 11.3 16.5 0.00 0.00 0.00 75 1013.9
20260901233026 77 274 10.4 15.6 0.00 0.00 0.00 74 1013.9
20260901231526 77 269 7.0 16.5 0.00 0.00 0.00 74 1013.9
20260901230025 77 266 7.8 12.2 0.00 0.00 0.00 73 1013.9
20260901224524 77 269 6.1 14.8 0.00 0.00 0.00 74 1014.1
20260901223024 77 289 9.6 14.8 0.00 0.00 0.00 73 1014.1
20260901221523 77 244 7.0 15.6 0.00 0.00 0.00 74 1014.2
20260901220022 78 234 7.0 14.8 0.00 0.00 0.00 74 1014.4
20260901214537 78 271 7.8 14.8 0.00 0.00 0.00 72 1014.6
20260901213021 78 279 6.1 14.8 0.00 0.00 0.00 72 1014.7
20260901211522 78 266 6.1 13.9 0.00 0.00 0.00 73 1014.8
20260901210020 77 239 7.0 13.9 0.00 0.00 0.00 72 1014.9
20260901204522 77 281 9.6 14.8 0.00 0.00 0.00 71 1014.9
20260901203018 78 286 7.8 13.0 0.00 0.00 0.00 71 1014.9
20260901201517 78 241 8.7 13.0 0.00 0.00 0.00 70 1015.1
20260901200017 78 265 7.0 13.0 0.00 0.00 0.00 72 1015.2
20260901194514 77 279 6.1 12.2 0.00 0.00 0.00 72 1015.3
20260901193012 77 253 5.2 12.2 0.00 0.00 0.00 72 1015.4
20260901191525 77 234 4.3 10.4 0.00 0.00 0.00 72 1015.6
20260901190010 77 292 6.1 11.3 0.00 0.00 0.00 71 1015.6
20260901184508 77 275 6.1 9.6 0.00 0.00 0.00 73 1015.7
20260901183007 76 261 4.3 9.6 0.00 0.00 0.00 74 1015.8
20260901181507 77 230 4.3 7.8 0.00 0.00 0.00 73 1015.7
20260901180005 77 250 3.5 9.6 0.00 0.00 0.00 73 1015.8
20260901174504 76 244 2.6 7.0 0.00 0.00 0.00 74 1015.8
20260901173002 77 271 3.5 8.7 0.00 0.00 0.00 73 1015.7
20260901171603 77 258 2.6 8.7 0.00 0.00 0.00 73 1015.6
20260901170056 76 268 2.6 8.7 0.00 0.00 0.00 73 1015.5
20260901164551 76 242 1.7 7.8 0.00 0.00 0.00 74 1015.4
20260901163055 76 261 0.9 6.1 0.00 0.00 0.00 75 1015.3
20260901161548 75 229 0.0 4.3 0.00 0.00 0.00 75 1015.2
20260901160044 76 263 2.6 7.0 0.00 0.00 0.00 74 1015.3
20260901154602 75 285 0.9 4.3 0.00 0.00 0.00 75 1015.4